Location: Unspecified
(43.4680°N, 87.1740°E)
Time: 05:04:26
(UTC+00:00)

Terra - Pass Details

Date: 17 April 2021
Orbit: 701 x 703 km, 98.2° (Epoch: 16 May)

Event Time Altitude Azimuth Distance (km) Brightness Sun altitude
Exits shadow 17:28:03 14° 292° (WNW) 1,908 4.3 -34.9°
Drops below altitude 10° 17:29:26 10° 308° (NW) 2,177 4.9 -35.0°
Sets 17:32:33 0° 329° (NNW) 3,101 6.1 -35.1°
